Weather History for NW Arkansas Airport, AR

Change the Weather History Date:

Monday, December 31, 2012

  Actual Average Record
Temperature  
Mean Temperature 34 °F -  
Max Temperature 37 °F - - ()
Min Temperature 32 °F - - ()
Degree Days  
Heating Degree Days 30    
Moisture  
Dew Point 35 °F    
Average Humidity 98    
Maximum Humidity 100    
Minimum Humidity 62    
Precipitation  
Precipitation 0.77 in - - ()
Sea Level Pressure  
Sea Level Pressure 30.08 in    
Wind  
Wind Speed 6 mph (SSE)    
Max Wind Speed 14 mph    
Max Gust Speed -    
Visibility 4 miles    
Events Fog , Rain    
T = Trace of Precipitation, MM = Missing Value Source: NWS Daily Summary

Daily Weather History Graph

Daily Weather History Graph

Search for Another Location

Airport:

Trip Planner

Search our weather history database for the weather conditions in past years. The results will help you decide how hot, cold, wet, or windy it might be!

Date:

Astronomy

Dec. 31, 2012 Rise Set
Actual Time 7:28 AM CST 5:12 PM CST
Civil Twilight 6:59 AM CST 5:41 PM CST
Nautical Twilight 6:27 AM CST 6:13 PM CST
Astronomical Twilight 5:56 AM CST 6:44 PM CST
Moon 8:37 PM CST (12/31) 9:16 AM CST (12/31)
Length of Visible Light 10h 41m
Length of Day
9h 44m
Waning Gibbous, 90% of the Moon is Illuminated
Dec 31
Waning Gibbous
Jan 4
Last Quarter
Jan 11
New
Jan 18
First Quarter
Jan 26
Full

Hourly Weather History & Observations

Time (CST) Temp. Windchill Dew Point Humidity Pressure Visibility Wind Dir Wind Speed Gust Speed Precip Events Conditions
12:53 AM 36.0 °F 27.1 °F 24.1 °F 62% 30.21 in 10.0 mi South 13.8 mph - N/A   Overcast
1:53 AM 33.1 °F 26.1 °F 30.9 °F 92% 30.22 in 5.0 mi South 8.1 mph - 0.07 in Rain Rain
2:53 AM 32.0 °F 24.8 °F 32.0 °F 100% 30.20 in 7.0 mi SSE 8.1 mph - 0.06 in   Overcast
3:07 AM 32.0 °F 26.4 °F - N/A% 30.18 in 7.0 mi South 5.8 mph - 0.02 in   Overcast
3:35 AM 32.0 °F 27.5 °F - N/A% 30.17 in 6.0 mi South 4.6 mph - 0.04 in   Overcast
3:53 AM 32.0 °F 27.5 °F - N/A% 30.20 in 6.0 mi SSW 4.6 mph - 0.06 in   Overcast
4:53 AM 33.1 °F 27.7 °F - N/A% 30.19 in 7.0 mi South 5.8 mph - 0.06 in Rain Light Rain
5:53 AM 33.1 °F 26.9 °F 33.1 °F 100% 30.18 in 5.0 mi South 6.9 mph - 0.06 in Rain Light Rain
6:42 AM 33.8 °F 27.7 °F 33.8 °F 100% 30.14 in 6.0 mi SSE 6.9 mph - 0.04 in Rain Light Rain
6:53 AM 33.1 °F 28.7 °F 33.1 °F 100% 30.16 in 6.0 mi SSE 4.6 mph - 0.04 in Rain Light Rain
7:00 AM 33.8 °F 28.6 °F 32.0 °F 93% 30.14 in 6.0 mi SSE 5.8 mph - 0.01 in Rain Light Rain
7:53 AM 33.1 °F 28.7 °F 32.0 °F 96% 30.15 in 5.0 mi SSE 4.6 mph - 0.03 in Rain Light Rain
8:53 AM 33.1 °F 27.7 °F 33.1 °F 100% 30.14 in 3.0 mi SE 5.8 mph - 0.05 in Rain Light Rain
9:53 AM 34.0 °F 28.0 °F 33.1 °F 96% 30.13 in 4.0 mi SE 6.9 mph - 0.03 in Rain Light Rain
10:13 AM 33.8 °F 30.8 °F 33.8 °F 100% 30.14 in 2.5 mi South 3.5 mph - 0.05 in Rain Rain
10:25 AM 33.8 °F 28.6 °F 33.8 °F 100% 30.12 in 3.0 mi ESE 5.8 mph - 0.07 in Rain Light Rain
10:38 AM 33.8 °F 29.6 °F 33.8 °F 100% 30.12 in 3.0 mi ESE 4.6 mph - 0.08 in Rain Light Rain
10:53 AM 34.0 °F 28.0 °F 34.0 °F 100% 30.13 in 2.5 mi SE 6.9 mph - 0.11 in Rain Rain
11:00 AM 33.8 °F 27.0 °F 33.8 °F 100% 30.10 in 3.0 mi SE 8.1 mph - 0.00 in Rain Light Rain
11:43 AM 35.6 °F - 33.8 °F 93% 30.10 in 1.8 mi Calm Calm - 0.08 in Rain Rain
11:53 AM 34.0 °F - 34.0 °F 100% 30.12 in 1.8 mi Calm Calm - 0.10 in Rain Rain
12:19 PM 35.6 °F 30.7 °F 33.8 °F 93% 30.06 in 2.0 mi SE 5.8 mph - 0.05 in Rain Light Rain
12:24 PM 35.6 °F 30.7 °F 35.6 °F 100% 30.06 in 1.8 mi SE 5.8 mph - 0.06 in Rain Light Rain
12:37 PM 35.6 °F 30.7 °F 35.6 °F 100% 30.04 in 2.5 mi SE 5.8 mph - 0.08 in Rain Light Rain
12:48 PM 35.6 °F 29.9 °F 35.6 °F 100% 30.03 in 3.0 mi SE 6.9 mph - 0.09 in Rain Light Rain
12:49 PM 35.1 °F 29.3 °F 35.1 °F 100% 30.05 in 3.0 mi SE 6.9 mph - 0.09 in Rain Light Rain
12:56 PM 35.6 °F 29.2 °F 35.6 °F 100% 30.03 in 3.0 mi SSE 8.1 mph - 0.00 in Rain Light Rain
1:33 PM 35.6 °F 29.2 °F 35.6 °F 100% 30.00 in 4.0 mi SE 8.1 mph - 0.00 in Rain Light Rain
1:53 PM 36.0 °F 30.3 °F 35.1 °F 97% 30.02 in 5.0 mi SE 6.9 mph - 0.01 in Rain Light Rain
2:53 PM 36.0 °F 29.0 °F 35.1 °F 97% 30.00 in 7.0 mi SE 9.2 mph - 0.00 in   Overcast
3:53 PM 36.0 °F 32.1 °F 36.0 °F 100% 30.00 in 6.0 mi SE 4.6 mph - N/A   Overcast
4:50 PM 35.6 °F - 35.6 °F 100% 29.97 in 2.5 mi Calm Calm - N/A   Overcast
4:53 PM 36.0 °F - 36.0 °F 100% 30.00 in 2.5 mi Calm Calm - N/A   Overcast
5:14 PM 35.6 °F 32.8 °F 35.6 °F 100% 29.98 in 4.0 mi SSE 3.5 mph - N/A   Overcast
5:53 PM 36.0 °F - 36.0 °F 100% 30.00 in 4.0 mi Calm Calm - N/A   Overcast
6:35 PM 37.4 °F - 35.6 °F 93% 29.98 in 3.0 mi Calm Calm - N/A   Overcast
6:53 PM 37.0 °F - 36.0 °F 96% 30.00 in 3.0 mi Calm Calm - N/A   Overcast
7:07 PM 37.4 °F - 37.4 °F 100% 29.99 in 2.5 mi Calm Calm - N/A   Overcast
7:38 PM 37.4 °F - 37.4 °F 100% 30.00 in 3.0 mi Calm Calm - N/A   Overcast
7:53 PM 37.0 °F - 37.0 °F 100% 30.01 in 3.0 mi Calm Calm - N/A   Overcast
8:16 PM 37.4 °F - 37.4 °F 100% 30.00 in 2.5 mi Calm Calm - N/A   Overcast
8:29 PM 37.4 °F - 37.4 °F 100% 30.00 in 1.5 mi Calm Calm - N/A   Overcast
8:53 PM 37.0 °F - 37.0 °F 100% 30.02 in 0.5 mi Calm Calm - N/A Fog Fog
9:53 PM 37.0 °F 33.3 °F 37.0 °F 100% 30.03 in 0.5 mi WSW 4.6 mph - N/A Fog Fog
10:01 PM 37.4 °F 33.8 °F 37.4 °F 100% 30.02 in 0.5 mi WSW 4.6 mph - N/A Fog Fog
10:53 PM 36.0 °F 33.3 °F 36.0 °F 100% 30.05 in 0.5 mi West 3.5 mph - N/A Fog Fog
11:38 PM 35.6 °F 29.9 °F 35.6 °F 100% 30.04 in 1.2 mi WNW 6.9 mph - N/A   Overcast
11:53 PM 36.0 °F 30.3 °F 36.0 °F 100% 30.06 in 1.8 mi WNW 6.9 mph - N/A   Overcast